Time,TemperatureF,DewpointF,PressureIn,WindDirection,WindDirectionDegrees,WindSpeedMPH,WindSpeedGustMPH,Humidity,HourlyPrecipIn,Conditions,Clouds,dailyrainin,SoftwareType,DateUTC
2013-05-23 00:00:00,60.1,29.3,29.66,SW,217,22.0,22.0,31,0.00,,,0.00,Wunderground v.1.15,2013-05-23 07:00:00,
2013-05-23 00:10:00,59.9,28.4,29.65,SW,222,23.0,24.0,30,0.00,,,0.00,Wunderground v.1.15,2013-05-23 07:10:00,
2013-05-23 00:20:00,59.8,28.3,29.64,SW,218,24.0,25.0,30,0.00,,,0.00,Wunderground v.1.15,2013-05-23 07:20:00,
2013-05-23 00:30:00,59.5,28.0,29.64,SW,225,24.0,26.0,30,0.00,,,0.00,Wunderground v.1.15,2013-05-23 07:30:00,
2013-05-23 00:40:00,59.6,28.1,29.65,SW,221,24.0,24.0,30,0.00,,,0.00,Wunderground v.1.15,2013-05-23 07:40:00,
2013-05-23 00:50:00,59.7,27.4,29.65,SW,227,22.0,22.0,29,0.00,,,0.00,Wunderground v.1.15,2013-05-23 07:50:00,
2013-05-23 01:00:00,59.6,27.3,29.65,SSW,211,20.0,20.0,29,0.00,,,0.00,Wunderground v.1.15,2013-05-23 08:00:00,
2013-05-23 01:10:00,59.3,27.0,29.65,SSW,205,19.0,21.0,29,0.00,,,0.00,Wunderground v.1.15,2013-05-23 08:10:00,
2013-05-23 01:19:00,59.5,26.3,29.65,SSW,210,20.0,20.0,28,0.00,,,0.00,Wunderground v.1.15,2013-05-23 08:19:00,
2013-05-23 01:30:00,59.0,25.9,29.64,SSW,192,22.0,22.0,28,0.00,,,0.00,Wunderground v.1.15,2013-05-23 08:30:00,
2013-05-23 01:40:00,59.0,25.0,29.64,SSW,192,24.0,29.0,27,0.00,,,0.00,Wunderground v.1.15,2013-05-23 08:40:00,
2013-05-23 01:49:00,59.0,25.0,29.65,South,188,24.0,24.0,27,0.00,,,0.00,Wunderground v.1.15,2013-05-23 08:49:00,
2013-05-23 02:00:00,59.2,24.3,29.65,South,178,20.0,22.0,26,0.00,,,0.00,Wunderground v.1.15,2013-05-23 09:00:00,
2013-05-23 02:10:00,59.0,24.1,29.65,SSW,192,19.0,19.0,26,0.00,,,0.00,Wunderground v.1.15,2013-05-23 09:10:00,
2013-05-23 02:20:00,59.0,24.1,29.65,SSE,164,16.0,16.0,26,0.00,,,0.00,Wunderground v.1.15,2013-05-23 09:20:00,
2013-05-23 02:30:00,59.2,23.4,29.66,South,180,19.0,19.0,25,0.00,,,0.00,Wunderground v.1.15,2013-05-23 09:30:00,
2013-05-23 02:40:00,59.0,23.2,29.65,South,187,19.0,20.0,25,0.00,,,0.00,Wunderground v.1.15,2013-05-23 09:40:00,
2013-05-23 02:49:00,58.7,23.9,29.65,SSW,211,17.0,17.0,26,0.00,,,0.00,Wunderground v.1.15,2013-05-23 09:49:00,
2013-05-23 03:00:00,59.2,23.4,29.65,SSW,194,18.0,18.0,25,0.00,,,0.00,Wunderground v.1.15,2013-05-23 10:00:00,
2013-05-23 03:10:00,59.3,23.4,29.64,SW,215,20.0,23.0,25,0.00,,,0.00,Wunderground v.1.15,2013-05-23 10:10:00,
2013-05-23 03:20:00,59.0,23.2,29.64,SSW,212,23.0,23.0,25,0.00,,,0.00,Wunderground v.1.15,2013-05-23 10:20:00,
2013-05-23 03:30:00,58.9,23.1,29.64,SSW,209,24.0,27.0,25,0.00,,,0.00,Wunderground v.1.15,2013-05-23 10:30:00,
2013-05-23 03:40:00,58.0,22.3,29.64,WSW,239,23.0,23.0,25,0.00,,,0.00,Wunderground v.1.15,2013-05-23 10:40:00,
2013-05-23 03:50:00,57.4,21.8,29.65,SW,223,23.0,23.0,25,0.00,,,0.00,Wunderground v.1.15,2013-05-23 10:50:00,
2013-05-23 04:00:00,57.0,22.4,29.65,SW,229,22.0,24.0,26,0.00,,,0.00,Wunderground v.1.15,2013-05-23 11:00:00,
2013-05-23 04:10:00,57.4,22.8,29.64,SW,224,25.0,25.0,26,0.00,,,0.00,Wunderground v.1.15,2013-05-23 11:10:00,
2013-05-23 04:20:00,56.5,22.0,29.65,SW,226,23.0,23.0,26,0.00,,,0.00,Wunderground v.1.15,2013-05-23 11:20:00,
2013-05-23 04:30:00,56.6,22.1,29.65,SW,223,22.0,25.0,26,0.00,,,0.00,Wunderground v.1.15,2013-05-23 11:30:00,
2013-05-23 04:40:00,57.4,21.8,29.65,SW,223,26.0,26.0,25,0.00,,,0.00,Wunderground v.1.15,2013-05-23 11:40:00,
2013-05-23 04:50:00,56.9,22.3,29.65,SW,230,22.0,28.0,26,0.00,,,0.00,Wunderground v.1.15,2013-05-23 11:50:00,
2013-05-23 05:00:00,57.5,21.9,29.64,WSW,242,22.0,22.0,25,0.00,,,0.00,Wunderground v.1.15,2013-05-23 12:00:00,
2013-05-23 05:10:00,59.0,22.2,29.64,WSW,244,21.0,27.0,24,0.00,,,0.00,Wunderground v.1.15,2013-05-23 12:10:00,
2013-05-23 05:20:00,58.6,22.8,29.64,WSW,257,25.0,25.0,25,0.00,,,0.00,Wunderground v.1.15,2013-05-23 12:20:00,
2013-05-23 05:30:00,60.2,21.2,29.64,WSW,254,25.0,30.0,22,0.00,,,0.00,Wunderground v.1.15,2013-05-23 12:30:00,
2013-05-23 05:40:00,59.0,21.2,29.64,WSW,248,24.0,28.0,23,0.00,,,0.00,Wunderground v.1.15,2013-05-23 12:40:00,
2013-05-23 05:49:00,58.1,21.4,29.65,SW,234,22.0,22.0,24,0.00,,,0.00,Wunderground v.1.15,2013-05-23 12:49:00,
2013-05-23 06:00:00,57.4,21.8,29.65,WSW,241,20.0,23.0,25,0.00,,,0.00,Wunderground v.1.15,2013-05-23 13:00:00,
2013-05-23 06:10:00,57.4,20.9,29.65,SW,225,24.0,24.0,24,0.00,,,0.00,Wunderground v.1.15,2013-05-23 13:10:00,
2013-05-23 06:20:00,57.0,21.5,29.66,South,189,24.0,24.0,25,0.00,,,0.00,Wunderground v.1.15,2013-05-23 13:20:00,
2013-05-23 06:30:00,57.1,20.6,29.67,SSW,212,23.0,23.0,24,0.00,,,0.00,Wunderground v.1.15,2013-05-23 13:30:00,
2013-05-23 06:40:00,57.1,20.6,29.67,SSW,192,20.0,24.0,24,0.00,,,0.00,Wunderground v.1.15,2013-05-23 13:40:00,
2013-05-23 06:49:00,57.2,20.7,29.68,SSW,207,18.0,23.0,24,0.00,,,0.00,Wunderground v.1.15,2013-05-23 13:49:00,
2013-05-23 07:00:00,57.7,21.1,29.67,SW,214,21.0,21.0,24,0.00,,,0.00,Wunderground v.1.15,2013-05-23 14:00:00,
2013-05-23 07:10:00,58.4,20.7,29.67,SSW,211,22.0,22.0,23,0.00,,,0.00,Wunderground v.1.15,2013-05-23 14:10:00,
2013-05-23 07:20:00,59.0,21.2,29.67,SSW,202,21.0,29.0,23,0.00,,,0.00,Wunderground v.1.15,2013-05-23 14:20:00,
2013-05-23 07:30:00,59.6,20.7,29.67,SSW,200,22.0,22.0,22,0.00,,,0.00,Wunderground v.1.15,2013-05-23 14:30:00,
2013-05-23 07:40:00,60.5,20.3,29.67,SSW,208,18.0,18.0,21,0.00,,,0.00,Wunderground v.1.15,2013-05-23 14:40:00,
2013-05-23 07:50:00,60.4,20.2,29.68,SSW,207,19.0,24.0,21,0.00,,,0.00,Wunderground v.1.15,2013-05-23 14:50:00,
2013-05-23 08:00:00,60.9,20.7,29.68,SSW,210,19.0,20.0,21,0.00,,,0.00,Wunderground v.1.15,2013-05-23 15:00:00,
2013-05-23 08:10:00,61.6,20.1,29.68,SSW,194,20.0,20.0,20,0.00,,,0.00,Wunderground v.1.15,2013-05-23 15:10:00,
2013-05-23 08:20:00,62.4,20.8,29.68,SSW,198,17.0,20.0,20,0.00,,,0.00,Wunderground v.1.15,2013-05-23 15:20:00,
2013-05-23 08:30:00,62.9,20.0,29.68,SSW,209,19.0,19.0,19,0.00,,,0.00,Wunderground v.1.15,2013-05-23 15:30:00,
2013-05-23 08:40:00,63.8,19.4,29.68,SSW,210,20.0,23.0,18,0.00,,,0.00,Wunderground v.1.15,2013-05-23 15:40:00,
2013-05-23 08:50:00,64.4,19.9,29.68,SSW,202,19.0,19.0,18,0.00,,,0.00,Wunderground v.1.15,2013-05-23 15:50:00,
2013-05-23 09:00:00,65.4,19.4,29.67,SW,215,18.0,23.0,17,0.00,,,0.00,Wunderground v.1.15,2013-05-23 16:00:00,
2013-05-23 09:10:00,66.5,18.9,29.68,SSW,207,18.0,19.0,16,0.00,,,0.00,Wunderground v.1.15,2013-05-23 16:10:00,
2013-05-23 09:20:00,66.1,18.5,29.68,SSW,198,18.0,18.0,16,0.00,,,0.00,Wunderground v.1.15,2013-05-23 16:20:00,
2013-05-23 09:30:00,66.3,18.7,29.68,SW,229,17.0,17.0,16,0.00,,,0.00,Wunderground v.1.15,2013-05-23 16:30:00,
2013-05-23 09:39:00,66.8,20.5,29.68,SW,219,17.0,17.0,17,0.00,,,0.00,Wunderground v.1.15,2013-05-23 16:39:00,
2013-05-23 09:50:00,67.2,20.9,29.68,SSW,207,18.0,18.0,17,0.00,,,0.00,Wunderground v.1.15,2013-05-23 16:50:00,
2013-05-23 10:00:00,67.8,21.4,29.68,SW,233,18.0,19.0,17,0.00,,,0.00,Wunderground v.1.15,2013-05-23 17:00:00,
2013-05-23 10:10:00,68.5,20.5,29.67,WSW,237,17.0,18.0,16,0.00,,,0.00,Wunderground v.1.15,2013-05-23 17:10:00,
2013-05-23 10:20:00,69.3,19.6,29.67,WSW,249,21.0,21.0,15,0.00,,,0.00,Wunderground v.1.15,2013-05-23 17:20:00,
2013-05-23 10:30:00,69.0,20.9,29.67,SW,229,22.0,22.0,16,0.00,,,0.00,Wunderground v.1.15,2013-05-23 17:30:00,
2013-05-23 10:40:00,69.7,21.5,29.67,SW,232,20.0,20.0,16,0.00,,,0.00,Wunderground v.1.15,2013-05-23 17:40:00,
2013-05-23 10:49:00,70.3,20.4,29.67,SW,233,18.0,18.0,15,0.00,,,0.00,Wunderground v.1.15,2013-05-23 17:49:00,
2013-05-23 11:00:00,71.0,21.0,29.67,SW,234,17.0,17.0,15,0.00,,,0.00,Wunderground v.1.15,2013-05-23 18:00:00,
2013-05-23 11:10:00,71.0,19.4,29.67,SW,225,14.0,14.0,14,0.00,,,0.00,Wunderground v.1.15,2013-05-23 18:10:00,
2013-05-23 11:19:00,71.3,17.9,29.67,SW,215,15.0,19.0,13,0.00,,,0.00,Wunderground v.1.15,2013-05-23 18:19:00,
2013-05-23 11:30:00,72.4,16.9,29.67,SW,215,16.0,16.0,12,0.00,,,0.00,Wunderground v.1.15,2013-05-23 18:30:00,
2013-05-23 11:40:00,72.5,16.9,29.67,South,190,17.0,17.0,12,0.00,,,0.00,Wunderground v.1.15,2013-05-23 18:40:00,
2013-05-23 11:50:00,73.4,17.6,29.67,SW,219,17.0,17.0,12,0.00,,,0.00,Wunderground v.1.15,2013-05-23 18:50:00,
2013-05-23 12:00:00,73.4,17.6,29.67,WSW,250,16.0,16.0,12,0.00,,,0.00,Wunderground v.1.15,2013-05-23 19:00:00,
2013-05-23 12:09:00,73.6,17.8,29.67,WSW,244,13.0,13.0,12,0.00,,,0.00,Wunderground v.1.15,2013-05-23 19:09:00,
2013-05-23 12:20:00,74.7,20.5,29.66,WSW,252,13.0,13.0,13,0.00,,,0.00,Wunderground v.1.15,2013-05-23 19:20:00,
2013-05-23 12:30:00,75.2,24.3,29.66,West,266,14.0,17.0,15,0.00,,,0.00,Wunderground v.1.15,2013-05-23 19:30:00,
2013-05-23 12:39:00,75.2,22.7,29.66,SW,221,15.0,19.0,14,0.00,,,0.00,Wunderground v.1.15,2013-05-23 19:39:00,
2013-05-23 12:50:00,75.1,22.6,29.66,West,259,14.0,14.0,14,0.00,,,0.00,Wunderground v.1.15,2013-05-23 19:50:00,
2013-05-23 13:00:00,75.6,23.0,29.66,WSW,248,14.0,19.0,14,0.00,,,0.00,Wunderground v.1.15,2013-05-23 20:00:00,
2013-05-23 13:09:00,75.8,23.2,29.65,SW,235,16.0,16.0,14,0.00,,,0.00,Wunderground v.1.15,2013-05-23 20:09:00,
2013-05-23 13:20:00,76.5,25.4,29.65,WSW,249,16.0,24.0,15,0.00,,,0.00,Wunderground v.1.15,2013-05-23 20:20:00,
2013-05-23 13:29:00,76.0,25.0,29.65,WSW,246,19.0,19.0,15,0.00,,,0.00,Wunderground v.1.15,2013-05-23 20:29:00,
2013-05-23 13:40:00,75.6,26.2,29.66,WSW,240,17.0,17.0,16,0.00,,,0.00,Wunderground v.1.15,2013-05-23 20:40:00,
2013-05-23 13:50:00,76.1,26.6,29.66,WSW,254,17.0,19.0,16,0.00,,,0.00,Wunderground v.1.15,2013-05-23 20:50:00,
2013-05-23 13:59:00,76.0,26.5,29.66,SW,235,20.0,20.0,16,0.00,,,0.00,Wunderground v.1.15,2013-05-23 20:59:00,
2013-05-23 14:10:00,76.9,27.3,29.66,WSW,240,20.0,23.0,16,0.00,,,0.00,Wunderground v.1.15,2013-05-23 21:10:00,
2013-05-23 14:19:00,76.4,26.9,29.65,SW,234,21.0,24.0,16,0.00,,,0.00,Wunderground v.1.15,2013-05-23 21:19:00,
2013-05-23 14:30:00,76.1,26.6,29.66,WSW,248,20.0,25.0,16,0.00,,,0.00,Wunderground v.1.15,2013-05-23 21:30:00,
2013-05-23 14:40:00,75.7,26.3,29.66,WSW,258,20.0,20.0,16,0.00,,,0.00,Wunderground v.1.15,2013-05-23 21:40:00,
2013-05-23 14:49:00,76.0,28.0,29.66,SW,236,20.0,25.0,17,0.00,,,0.00,Wunderground v.1.15,2013-05-23 21:49:00,
2013-05-23 15:00:00,76.5,28.4,29.65,SW,232,21.0,25.0,17,0.00,,,0.00,Wunderground v.1.15,2013-05-23 22:00:00,
2013-05-23 15:10:00,76.1,29.5,29.65,SW,233,22.0,22.0,18,0.00,,,0.00,Wunderground v.1.15,2013-05-23 22:10:00,
2013-05-23 15:19:00,75.2,28.8,29.65,WSW,246,23.0,23.0,18,0.00,,,0.00,Wunderground v.1.15,2013-05-23 22:19:00,
2013-05-23 15:30:00,76.0,28.0,29.66,SW,235,21.0,21.0,17,0.00,,,0.00,Wunderground v.1.15,2013-05-23 22:30:00,
2013-05-23 15:40:00,75.2,28.8,29.66,WSW,252,22.0,22.0,18,0.00,,,0.00,Wunderground v.1.15,2013-05-23 22:40:00,
2013-05-23 15:50:00,74.9,28.5,29.65,SW,219,21.0,27.0,18,0.00,,,0.00,Wunderground v.1.15,2013-05-23 22:50:00,
2013-05-23 16:00:00,75.5,29.0,29.65,SW,226,23.0,25.0,18,0.00,,,0.00,Wunderground v.1.15,2013-05-23 23:00:00,
2013-05-23 16:10:00,75.7,30.5,29.65,SSW,209,24.0,27.0,19,0.00,,,0.00,Wunderground v.1.15,2013-05-23 23:10:00,
2013-05-23 16:20:00,76.5,29.8,29.65,SSW,212,23.0,23.0,18,0.00,,,0.00,Wunderground v.1.15,2013-05-23 23:20:00,
2013-05-23 16:30:00,75.8,29.2,29.65,SW,217,24.0,24.0,18,0.00,,,0.00,Wunderground v.1.15,2013-05-23 23:30:00,
2013-05-23 16:39:00,76.0,29.4,29.65,SW,221,23.0,25.0,18,0.00,,,0.00,Wunderground v.1.15,2013-05-23 23:39:00,
2013-05-23 16:50:00,76.8,27.2,29.65,SW,234,23.0,23.0,16,0.00,,,0.00,Wunderground v.1.15,2013-05-23 23:50:00,
2013-05-23 16:59:00,76.9,28.7,29.65,West,264,22.0,22.0,17,0.00,,,0.00,Wunderground v.1.15,2013-05-23 23:59:00,
2013-05-23 17:10:00,75.4,27.5,29.65,West,267,25.0,26.0,17,0.00,,,0.00,Wunderground v.1.15,2013-05-24 00:10:00,
2013-05-23 17:19:00,74.4,29.4,29.66,WSW,246,24.0,24.0,19,0.00,,,0.00,Wunderground v.1.15,2013-05-24 00:19:00,
2013-05-23 17:30:00,73.5,28.7,29.65,WSW,249,25.0,30.0,19,0.00,,,0.00,Wunderground v.1.15,2013-05-24 00:30:00,
2013-05-23 17:40:00,73.5,28.7,29.65,WSW,245,27.0,27.0,19,0.00,,,0.00,Wunderground v.1.15,2013-05-24 00:40:00,
2013-05-23 17:50:00,73.1,28.4,29.65,WSW,237,28.0,31.0,19,0.00,,,0.00,Wunderground v.1.15,2013-05-24 00:50:00,
2013-05-23 18:00:00,72.5,29.1,29.65,WSW,250,29.0,29.0,20,0.00,,,0.00,Wunderground v.1.15,2013-05-24 01:00:00,
2013-05-23 18:10:00,72.2,28.9,29.63,WSW,246,28.0,29.0,20,0.00,,,0.00,Wunderground v.1.15,2013-05-24 01:10:00,
2013-05-23 18:20:00,71.7,28.5,29.63,WSW,240,30.0,30.0,20,0.00,,,0.00,Wunderground v.1.15,2013-05-24 01:20:00,
2013-05-23 18:30:00,71.6,28.4,29.65,SW,229,27.0,27.0,20,0.00,,,0.00,Wunderground v.1.15,2013-05-24 01:30:00,
2013-05-23 18:39:00,71.4,28.2,29.65,SW,221,26.0,28.0,20,0.00,,,0.00,Wunderground v.1.15,2013-05-24 01:39:00,
2013-05-23 18:50:00,70.6,27.5,29.66,SW,221,27.0,31.0,20,0.00,,,0.00,Wunderground v.1.15,2013-05-24 01:50:00,
2013-05-23 19:00:00,69.9,28.2,29.67,SW,225,26.0,26.0,21,0.00,,,0.00,Wunderground v.1.15,2013-05-24 02:00:00,
2013-05-23 19:09:00,69.4,27.7,29.67,WSW,245,25.0,25.0,21,0.00,,,0.00,Wunderground v.1.15,2013-05-24 02:09:00,
2013-05-23 19:20:00,69.1,27.5,29.66,WSW,238,25.0,30.0,21,0.00,,,0.00,Wunderground v.1.15,2013-05-24 02:20:00,
2013-05-23 19:30:00,68.5,27.0,29.67,SW,219,25.0,25.0,21,0.00,,,0.00,Wunderground v.1.15,2013-05-24 02:30:00,
2013-05-23 19:39:00,68.2,26.7,29.68,WSW,249,23.0,23.0,21,0.00,,,0.00,Wunderground v.1.15,2013-05-24 02:39:00,
2013-05-23 19:50:00,67.6,26.2,29.67,WSW,248,23.0,24.0,21,0.00,,,0.00,Wunderground v.1.15,2013-05-24 02:50:00,
2013-05-23 20:00:00,67.0,26.9,29.67,WSW,245,21.0,21.0,22,0.00,,,0.00,Wunderground v.1.15,2013-05-24 03:00:00,
2013-05-23 20:10:00,66.4,26.4,29.68,WSW,246,22.0,23.0,22,0.00,,,0.00,Wunderground v.1.15,2013-05-24 03:10:00,
2013-05-23 20:20:00,66.1,27.2,29.69,WSW,244,21.0,21.0,23,0.00,,,0.00,Wunderground v.1.15,2013-05-24 03:20:00,
2013-05-23 20:29:00,65.5,25.6,29.69,SW,232,17.0,17.0,22,0.00,,,0.00,Wunderground v.1.15,2013-05-24 03:29:00,
2013-05-23 20:40:00,64.9,26.2,29.70,SW,224,16.0,18.0,23,0.00,,,0.00,Wunderground v.1.15,2013-05-24 03:40:00,
2013-05-23 20:50:00,65.2,26.4,29.70,SW,230,16.0,17.0,23,0.00,,,0.00,Wunderground v.1.15,2013-05-24 03:50:00,
2013-05-23 20:59:00,65.2,26.4,29.70,SW,219,17.0,23.0,23,0.00,,,0.00,Wunderground v.1.15,2013-05-24 03:59:00,
2013-05-23 21:10:00,64.7,27.0,29.72,SSW,198,18.0,19.0,24,0.00,,,0.00,Wunderground v.1.15,2013-05-24 04:10:00,
2013-05-23 21:19:00,64.3,26.7,29.72,SSW,201,19.0,19.0,24,0.00,,,0.00,Wunderground v.1.15,2013-05-24 04:19:00,
2013-05-23 21:30:00,63.8,26.3,29.73,SSW,192,18.0,18.0,24,0.00,,,0.00,Wunderground v.1.15,2013-05-24 04:30:00,
2013-05-23 21:40:00,64.3,26.7,29.73,SW,218,19.0,22.0,24,0.00,,,0.00,Wunderground v.1.15,2013-05-24 04:40:00,
2013-05-23 21:50:00,64.0,26.4,29.74,SW,215,19.0,19.0,24,0.00,,,0.00,Wunderground v.1.15,2013-05-24 04:50:00,
2013-05-23 22:00:00,64.0,26.4,29.74,SSW,200,17.0,19.0,24,0.00,,,0.00,Wunderground v.1.15,2013-05-24 05:00:00,
2013-05-23 22:10:00,63.8,27.3,29.75,SSW,211,19.0,19.0,25,0.00,,,0.00,Wunderground v.1.15,2013-05-24 05:10:00,
2013-05-23 22:20:00,63.1,27.6,29.74,SW,227,19.0,19.0,26,0.00,,,0.00,Wunderground v.1.15,2013-05-24 05:20:00,
2013-05-23 22:30:00,62.7,28.2,29.75,SW,215,19.0,19.0,27,0.00,,,0.00,Wunderground v.1.15,2013-05-24 05:30:00,
2013-05-23 22:40:00,62.5,28.0,29.75,SSW,213,19.0,19.0,27,0.00,,,0.00,Wunderground v.1.15,2013-05-24 05:40:00,
2013-05-23 22:50:00,62.3,27.9,29.75,SSW,206,16.0,16.0,27,0.00,,,0.00,Wunderground v.1.15,2013-05-24 05:50:00,
2013-05-23 23:00:00,62.2,27.8,29.75,SW,225,17.0,18.0,27,0.00,,,0.00,Wunderground v.1.15,2013-05-24 06:00:00,
2013-05-23 23:09:00,62.2,27.8,29.75,SW,215,18.0,18.0,27,0.00,,,0.00,Wunderground v.1.15,2013-05-24 06:09:00,
2013-05-23 23:20:00,62.2,27.8,29.75,SSW,206,17.0,17.0,27,0.00,,,0.00,Wunderground v.1.15,2013-05-24 06:20:00,
2013-05-23 23:30:00,62.1,27.7,29.75,SW,217,17.0,17.0,27,0.00,,,0.00,Wunderground v.1.15,2013-05-24 06:30:00,
2013-05-23 23:39:00,62.1,28.6,29.75,SW,231,17.0,17.0,28,0.00,,,0.00,Wunderground v.1.15,2013-05-24 06:39:00,
2013-05-23 23:50:00,62.2,28.7,29.75,SW,215,16.0,16.0,28,0.00,,,0.00,Wunderground v.1.15,2013-05-24 06:50:00,
2013-05-23 23:59:00,61.9,28.4,29.76,SSW,200,15.0,15.0,28,0.00,,,0.00,Wunderground v.1.15,2013-05-24 06:59:00,